This demonstration page uses our WeatherBlox Daily Observations layout. Learn more.

Left ArrowRight Arrow

Hourly Observations for July 18, 2018

Temp ( °F °C ) Dew Point ( °F °C ) Humidity (%) Winds ( mph kmh ) Pressure ( in mb ) Visibility ( mi km ) Precip ( " mm )
12:53 am 00:53 Mostly Cloudy 70 21.1 68 20 93 93 ESE 9 15 30.07 1018 10 16 0.00 0.00
1:05 am 01:05 Mostly Cloudy 70 21.1 68 20 93 93 ESE 8 13 30.03 1017 10 16 0.00 0.00
1:53 am 01:53 Mostly Clear 69 20.6 67 19.4 93 93 ESE 10 17 30.05 1018 7 11 0.00 0.00
2:32 am 02:32 Mostly Cloudy 69 20.6 67 19.4 93 93 E 5 7 30.03 1017 8 13 0.00 0.00
2:53 am 02:53 Cloudy 69 20.6 68 20 96 96 ESE 8 13 30.04 1017 9 14 0.00 0.00
3:37 am 03:37 Cloudy with Mist and Fog 68 20 66 19 94 94 SE 7 11 30.03 1017 6 10 0.00 0.00
3:53 am 03:53 Cloudy 68 20 67 19.4 96 96 ESE 7 11 30.03 1017 7 11 0.00 0.00
4:53 am 04:53 Cloudy with Mist and Fog 68 20 67 19.4 96 96 E 3 6 30.02 1017 5 8 0.00 0.00
5:43 am 05:43 Cloudy with Mist and Fog 68 20 67 19.4 96 96 Calm 30.03 1017 2 3 0.00 0.00
5:53 am 05:53 Cloudy with Mist and Fog 68 20 67 19.4 96 96 Calm 30.04 1017 2 3 0.00 0.00
6:43 am 06:43 Cloudy with Mist and Fog 68 20 67 19.4 96 96 Calm 30.03 1017 3 5 0.00 0.00
6:53 am 06:53 Cloudy with Mist and Fog 68 20 67 19.4 96 96 WNW 3 6 30.05 1018 3 4 0.00 0.00
7:02 am 07:02 Cloudy with Mist and Fog 68 20 66 19 94 94 Calm 30.03 1017 2 2 0.00 0.00
7:14 am 07:14 Cloudy with Mist and Fog 68 20 66 19 94 94 WNW 3 6 30.03 1017 3 5 0.00 0.00
7:24 am 07:24 Cloudy with Mist and Fog 68 20 66 19 94 94 Calm 30.03 1017 2 3 0.00 0.00
7:53 am 07:53 Cloudy with Mist and Fog 69 20.6 68 20 96 96 NNE 5 7 30.06 1018 2 3 0.00 0.00
8:02 am 08:02 Cloudy with Mist and Fog 70 21 68 20 94 94 NNE 5 7 30.03 1017 2 3 0.00 0.00
8:23 am 08:23 Cloudy with Mist and Fog 69 20.6 68 20 96 96 NNE 3 6 30.03 1017 3 5 0.00 0.00
8:53 am 08:53 Cloudy with Mist and Fog 69 20.6 68 20 96 96 Calm 30.05 1018 4 6 0.00 0.00
9:53 am 09:53 Cloudy 70 21.1 67 19.4 90 90 Calm 30.02 1017 8 13 0.00 0.00
10:53 am 10:53 Cloudy with Mist and Fog 72 22.2 68 20 87 87 SSE 10 17 30.00 1016 5 8 0.00 0.00
11:53 am 11:53 Cloudy 73 22.8 69 20.6 87 87 ESE 9 15 29.98 1015 10 16 0.00 0.00
12:43 pm 12:43 Cloudy 75 23.9 69 20.6 82 82 SE 10 17 29.94 1014 10 16 0.00 0.00
12:53 pm 12:53 Cloudy 75 23.9 69 20.6 82 82 SSE 9 15 29.98 1015 10 16 0.00 0.00
1:25 pm 13:25 Mostly Cloudy 78 25.6 70 21.1 76 76 SE 7 11 29.94 1014 10 16 0.00 0.00
1:46 pm 13:46 Mostly Sunny 79 26.1 69 20.6 72 72 S 7 11 29.94 1014 10 16 0.00 0.00
1:53 pm 13:53 Partly Cloudy 78 25.6 68 20 71 71 Calm 29.97 1015 10 16 0.00 0.00
2:02 pm 14:02 Mostly Cloudy 78 25.6 69 20.6 74 74 SE 7 11 29.94 1014 10 16 0.00 0.00
2:53 pm 14:53 Mostly Cloudy 80 26.7 69 20.6 69 69 VRB 5 7 29.96 1015 10 16 0.00 0.00
3:22 pm 15:22 Partly Cloudy 83 28.3 68 20 61 61 VRB 6 9 29.88 1012 10 16 0.00 0.00
3:31 pm 15:31 Mostly Cloudy 80 26.7 69 20.6 69 69 SE 6 9 29.91 1013 10 16 0.00 0.00
3:53 pm 15:53 Partly Cloudy 81 27.2 68 20 65 65 VRB 7 11 29.94 1014 10 16 0.00 0.00
4:53 pm 16:53 Sunny 83 28.3 67 19.4 59 59 S 8 13 29.93 1014 10 16 0.00 0.00
5:53 pm 17:53 Sunny 83 28.3 68 20 61 61 S 8 13 29.91 1013 10 16 0.00 0.00
6:53 pm 18:53 Mostly Sunny 83 28.3 69 20.6 63 63 S 7 11 29.89 1012 10 16 0.00 0.00
7:53 pm 19:53 Mostly Sunny 82 27.8 68 20 63 63 S 6 9 29.87 1012 10 16 0.00 0.00
8:53 pm 20:53 Sunny 80 26.7 70 21.1 71 71 SSE 7 11 29.85 1011 10 16 0.00 0.00
9:53 pm 21:53 Cloudy with Thunderstorms 77 25 72 22.2 85 85 ESE 8 13 29.88 1012 10 16 0.00 0.00
10:14 pm 22:14 Cloudy with Nearby Thunderstorms 75 24 73 23 94 94 ESE 6 9 29.85 1011 10 16 0.00 0.00
10:31 pm 22:31 Mostly Cloudy 76 24.4 73 22.8 91 91 ESE 7 11 29.85 1011 10 16 0.01 0.25
10:53 pm 22:53 Mostly Clear 76 24.4 72 22.2 88 88 S 8 13 29.88 1012 10 16 0.01 0.25
11:11 pm 23:11 Mostly Clear with Nearby Thunderstorms 76 24.4 72 22.2 88 88 S 10 17 29.85 1011 10 16 0.00 0.00
11:38 pm 23:38 Partly Cloudy with Light Rain 74 23.3 72 22.2 94 94 VRB 3 6 29.85 1011 10 16 0.00 0.03
11:53 pm 23:53 Partly Cloudy 74 23.3 72 22.2 94 94 S 3 6 29.91 1013 10 16 0.00 0.03

Powered by AerisWeather